Regional Weather Roundup
Issued by NWS Cleveland, OH

Home | Current Version | Previous Version | Graphics & Text | Print | Product List | Glossary On
Versions: 1 2 3 4 5 6 7 8 9 10 11 12 13 14 15 16 17 18 19 20 21 22 23 24 25 26 27 28 29 30 31 32 33 34 35 36 37 38 39 40 41 42 43 44 45 46 47 48 49 50
000
ASUS41 KCLE 210612
RWRCLE
OHIO REGIONAL WEATHER ROUNDUP
NATIONAL WEATHER SERVICE WILMINGTON, OH
200 AM EDT MON AUG 21 2017

NOTE: "FAIR" INDICATES FEW OR NO CLOUDS BELOW 12,000 FEET WITH NO
SIGNIFICANT WEATHER AND/OR OBSTRUCTIONS TO VISIBILITY.

OHZ001>008-015>018-024>027-034-035-043-044-210700-
   NORTHWEST OHIO

CITY           SKY/WX    TMP DP  RH WIND       PRES   REMARKS
DEFIANCE       FAIR      69  66  90 CALM      30.10R
FINDLAY        FAIR      69  65  86 S5        30.10S
TOLEDO EXPRESS FAIR      70  69  97 W6        30.10R
TOLEDO EXEC    FAIR      71  69  93 CALM      30.10S
LIMA           FAIR      69  66  90 CALM      30.12S
$$

OHZ009>014-019>023-028>033-038-089-210700-
   NORTHEAST OHIO

CITY           SKY/WX    TMP DP  RH WIND       PRES   REMARKS
CLE-HOPKINS    MOCLDY    76  66  71 S7        30.12S
CLE-LAKEFRONT  FAIR      78  63  59 S12       30.09R
CUY CO. ARPT   NOT AVBL
LORAIN-ELYRIA    N/A    N/A N/A N/A MISG      30.11S
ASHTABULA      CLOUDY    70  62  76 SE6       30.14F
AKRON-CANTON   FAIR      73  64  73 S7        30.14S
WOOSTER        FAIR      70  66  87 S5        30.14S
MANSFIELD      FAIR      70  68  93 S6        30.14S
YOUNGSTOWN     MOCLDY    72  60  66 SE8       30.14F
$$

OHZ042-051>053-060>062-070>072-077>081-210700-
  SOUTHWEST OHIO

CITY           SKY/WX    TMP DP  RH WIND       PRES   REMARKS
CINC-COVINGTON FAIR      73  70  90 S6        30.12S
CINC-LUNKEN    FAIR      70  70 100 CALM      30.12S
HAMILTON       FAIR      69  68  96 CALM      30.13S
DAYTON         FAIR      73  64  73 S3        30.14S
WRIGHT-PAT AFB PTCLDY    70  66  89 CALM      30.12F
DAYTON GENERAL FAIR      72  64  76 S6        30.12F
WILMINGTON     FAIR      70  69  97 S3        30.13F
$$

OHZ036-037-039>041-045>050-054>059-063>069-073>076-082>088-210700-
  CENTRAL AND SOUTHEAST OHIO

CITY           SKY/WX    TMP DP  RH WIND       PRES   REMARKS
COLUMBUS       FAIR      76  71  85 CALM      30.13R
OSU AIRPORT    FAIR      74  69  85 CALM      30.13S
BOLTON FIELD   FAIR      69  68  95 CALM      30.14S
RICKENBACK AFB FAIR      70  69  98 CALM      30.13S
NEWARK         FAIR      70  68  93 CALM      30.13S FOG
MARION         FAIR      68  65  90 S6        30.13R FOG
LANCASTER      MOCLDY    69  69 100 CALM      30.14S FOG
ZANESVILLE     FAIR      71  67  87 CALM      30.14S
NEW PHILLY     FAIR      69  67  93 CALM      30.15R
$$




USA.gov is the U.S. government's official web portal to all federal, state and local government web resources and services.